SQ5OUZ-1 Weather Reports


Display with metric or nautical units.
time (UTC)temp
F
wind
direction
speed
MPH
gust
MPH
rain 1hr
in
rain 24hr
in
rain mn
in
humidity
%
barometer
mb
20260508044028 51 0 0.0 0.0 0.00 0.00 0.00 88 1016.9
20260508042525 51 0 0.0 0.0 0.00 0.00 0.00 88 1016.9
20260508041022 51 0 0.0 0.0 0.00 0.00 0.00 89 1016.8
20260508035518 51 0 0.0 0.0 0.00 0.00 0.00 88 1016.7
20260508034015 51 0 0.0 0.0 0.00 0.00 0.00 86 1016.7
20260508032512 51 0 0.0 0.0 0.00 0.00 0.00 84 1016.4
20260508031009 52 0 0.0 0.0 0.00 0.00 0.00 81 1016.4
20260508025505 52 0 0.0 0.0 0.00 0.00 0.00 81 1016.4
20260508024002 53 0 0.0 0.0 0.00 0.00 0.00 81 1016.3
20260508022459 53 0 0.0 0.0 0.00 0.00 0.00 81 1016.4
20260508020956 53 0 0.0 0.0 0.00 0.00 0.00 81 1016.2
20260508015452 53 0 0.0 0.0 0.00 0.00 0.00 81 1016.0
20260508013949 53 0 0.0 0.0 0.00 0.00 0.00 81 1015.9
20260508012446 53 0 0.0 0.0 0.00 0.00 0.00 81 1015.9
20260508010942 53 0 0.0 0.0 0.00 0.00 0.00 81 1015.9
20260508005439 53 0 0.0 0.0 0.00 0.00 0.00 83 1015.9
20260508003936 53 0 0.0 0.0 0.00 0.00 0.00 83 1016.0
20260508002433 53 0 0.0 0.0 0.00 0.00 0.00 83 1015.9
20260508000929 53 0 0.0 0.0 0.00 0.00 0.00 83 1015.8
20260507235426 53 0 0.0 0.0 0.00 0.00 0.00 83 1015.8
20260507233923 53 0 0.0 0.0 0.00 0.00 0.00 83 1015.9
20260507232419 54 0 0.0 0.0 0.00 0.00 0.00 83 1016.1
20260507230916 54 0 0.0 0.0 0.00 0.00 0.00 82 1016.2
20260507225413 54 0 0.0 0.0 0.00 0.00 0.00 83 1016.1
20260507223910 54 0 0.0 0.0 0.00 0.00 0.00 84 1016.2
20260507222406 54 0 0.0 0.0 0.00 0.00 0.00 84 1016.0
20260507220903 54 0 0.0 0.0 0.00 0.00 0.00 84 1015.8
20260507215400 54 0 0.0 0.0 0.00 0.00 0.00 84 1015.6
20260507213857 55 0 0.0 0.0 0.00 0.00 0.00 85 1015.4
20260507212353 55 0 0.0 0.0 0.00 0.00 0.00 86 1015.3
20260507210850 55 0 0.0 0.0 0.00 0.00 0.00 86 1015.3
20260507205347 56 0 0.0 0.0 0.00 0.00 0.00 85 1014.8
20260507203844 56 0 0.0 0.0 0.00 0.00 0.00 84 1014.9
20260507202340 56 0 0.0 0.0 0.00 0.00 0.00 83 1014.7
20260507200837 56 0 0.0 0.0 0.00 0.00 0.00 83 1014.7
20260507195334 57 0 0.0 0.0 0.00 0.00 0.00 82 1014.9
20260507193831 57 0 0.0 0.0 0.00 0.00 0.00 81 1015.1
20260507192327 57 0 0.0 0.0 0.00 0.00 0.00 81 1015.0
20260507190824 58 0 0.0 0.0 0.00 0.00 0.00 80 1014.9
20260507185321 58 0 0.0 0.0 0.00 0.00 0.00 80 1014.8
20260507183818 58 0 0.0 0.0 0.00 0.00 0.00 77 1014.7
20260507182314 59 0 0.0 0.0 0.00 0.00 0.00 73 1014.6
20260507180811 61 0 0.0 0.0 0.00 0.00 0.00 68 1014.1
20260507175308 62 0 0.0 0.0 0.00 0.00 0.00 64 1013.8
20260507173805 62 0 0.0 0.0 0.00 0.00 0.00 63 1013.6
20260507172301 63 0 0.0 0.0 0.00 0.00 0.00 61 1013.3
20260507170758 63 0 0.0 0.0 0.00 0.00 0.00 60 1013.2
20260507164314 64 0 0.0 0.0 0.00 0.00 0.00 59 1012.7
20260507162811 65 0 0.0 0.0 0.00 0.00 0.00 57 1012.8
20260507161307 65 0 0.0 0.0 0.00 0.00 0.00 57 1012.8
20260507155804 66 0 0.0 0.0 0.00 0.00 0.00 56 1012.8
20260507154301 66 0 0.0 0.0 0.00 0.00 0.00 56 1012.7
20260507152758 66 0 0.0 0.0 0.00 0.00 0.00 57 1012.7
20260507151254 66 0 0.0 0.0 0.00 0.00 0.00 56 1012.8
20260507145751 67 0 0.0 0.0 0.00 0.00 0.00 56 1012.8
20260507144248 67 0 0.0 0.0 0.00 0.00 0.00 56 1012.9
20260507142745 67 0 0.0 0.0 0.00 0.00 0.00 55 1012.8
20260507141241 67 0 0.0 0.0 0.00 0.00 0.00 56 1012.7
20260507135738 67 0 0.0 0.0 0.00 0.00 0.00 56 1012.6
20260507134235 67 0 0.0 0.0 0.00 0.00 0.00 56 1012.6
20260507132731 67 0 0.0 0.0 0.00 0.00 0.00 55 1012.6
20260507131228 66 0 0.0 0.0 0.00 0.00 0.00 57 1012.7
20260507125725 69 0 0.0 0.0 0.00 0.00 0.00 53 1012.6
20260507124221 70 0 0.0 0.0 0.00 0.00 0.00 53 1012.4
20260507122718 70 0 0.0 0.0 0.00 0.00 0.00 53 1012.2
20260507121215 68 0 0.0 0.0 0.00 0.00 0.00 56 1012.3
20260507115712 69 0 0.0 0.0 0.00 0.00 0.00 55 1012.2
20260507114209 68 0 0.0 0.0 0.00 0.00 0.00 58 1012.1
20260507112705 68 0 0.0 0.0 0.00 0.00 0.00 57 1012.0
20260507111202 69 0 0.0 0.0 0.00 0.00 0.00 56 1011.8
20260507105659 69 0 0.0 0.0 0.00 0.00 0.00 55 1011.6
20260507104156 71 0 0.0 0.0 0.00 0.00 0.00 53 1011.3
20260507102652 72 0 0.0 0.0 0.00 0.00 0.00 50 1011.0
20260507101149 72 0 0.0 0.0 0.00 0.00 0.00 49 1010.7
20260507095637 74 0 0.0 0.0 0.00 0.00 0.00 47 1010.6
20260507094132 73 0 0.0 0.0 0.00 0.00 0.00 45 1010.5
20260507092629 75 0 0.0 0.0 0.00 0.00 0.00 43 1010.3
20260507091126 77 0 0.0 0.0 0.00 0.00 0.00 40 1010.2
20260507085623 81 0 0.0 0.0 0.00 0.00 0.00 35 1009.9
20260507084119 79 0 0.0 0.0 0.00 0.00 0.00 37 1009.9
20260507082616 83 0 0.0 0.0 0.00 0.00 0.00 33 1009.7
20260507081113 83 0 0.0 0.0 0.00 0.00 0.00 33 1009.5
20260507075610 84 0 0.0 0.0 0.00 0.00 0.00 32 1009.5
20260507074106 86 0 0.0 0.0 0.00 0.00 0.00 31 1009.4
20260507072603 86 0 0.0 0.0 0.00 0.00 0.00 30 1009.3
20260507071100 85 0 0.0 0.0 0.00 0.00 0.00 31 1009.1
20260507065557 84 0 0.0 0.0 0.00 0.00 0.00 32 1009.0
20260507064053 83 0 0.0 0.0 0.00 0.00 0.00 33 1008.8
20260507062550 83 0 0.0 0.0 0.00 0.00 0.00 33 1008.8
20260507061047 82 0 0.0 0.0 0.00 0.00 0.00 34 1008.8
20260507055544 81 0 0.0 0.0 0.00 0.00 0.00 37 1008.7
20260507054040 76 0 0.0 0.0 0.00 0.00 0.00 44 1008.7
20260507052537 72 0 0.0 0.0 0.00 0.00 0.00 49 1008.8
20260507051034 69 0 0.0 0.0 0.00 0.00 0.00 53 1008.7
20260507045531 66 0 0.0 0.0 0.00 0.00 0.00 59 1008.7